TimeEDT,TemperatureF,Dew PointF,Humidity,Sea Level PressureIn,VisibilityMPH,Wind Direction,Wind SpeedMPH,Gust SpeedMPH,PrecipitationIn,Events,Conditions,WindDirDegrees,DateUTC
12:54 AM,52.0,41.0,66,30.32,10.0,Calm,Calm,-,0.00,,Mostly Cloudy,0,2007-03-20 04:54:00
1:54 AM,48.9,43.0,80,30.33,10.0,NW,4.6,-,0.00,Rain,Light Rain,320,2007-03-20 05:54:00
2:54 AM,46.0,42.1,86,30.29,10.0,Calm,Calm,-,0.00,,Partly Cloudy,0,2007-03-20 06:54:00
3:54 AM,44.1,41.0,89,30.29,10.0,NW,8.1,-,N/A,,Clear,320,2007-03-20 07:54:00
4:54 AM,44.1,39.9,85,30.29,10.0,NNW,4.6,-,N/A,,Clear,340,2007-03-20 08:54:00
5:54 AM,43.0,39.9,89,30.30,10.0,North,4.6,-,N/A,,Clear,360,2007-03-20 09:54:00
6:54 AM,44.1,39.9,85,30.32,10.0,NNW,5.8,-,N/A,,Clear,330,2007-03-20 10:54:00
7:54 AM,42.1,39.0,89,30.33,7.0,Calm,Calm,-,N/A,,Clear,0,2007-03-20 11:54:00
8:54 AM,48.9,42.1,77,30.34,10.0,Calm,Calm,-,N/A,,Clear,0,2007-03-20 12:54:00
9:54 AM,57.0,43.0,59,30.33,10.0,NNW,11.5,-,N/A,,Clear,340,2007-03-20 13:54:00
10:54 AM,63.0,43.0,48,30.34,10.0,North,10.4,-,N/A,,Clear,360,2007-03-20 14:54:00
11:54 AM,64.9,46.0,50,30.35,10.0,North,11.5,-,N/A,,Clear,360,2007-03-20 15:54:00
12:54 PM,70.0,46.9,44,30.34,10.0,NNW,11.5,-,N/A,,Clear,340,2007-03-20 16:54:00
1:54 PM,71.1,46.9,42,30.33,10.0,North,10.4,-,N/A,,Partly Cloudy,10,2007-03-20 17:54:00
2:54 PM,68.0,46.0,45,30.33,10.0,North,6.9,-,N/A,,Overcast,360,2007-03-20 18:54:00
3:54 PM,66.9,46.0,47,30.32,10.0,NNW,8.1,-,N/A,,Overcast,340,2007-03-20 19:54:00
4:54 PM,60.1,54.0,80,30.35,6.0,SW,4.6,-,0.00,Rain,Light Rain,230,2007-03-20 20:54:00
5:54 PM,59.0,54.0,83,30.35,10.0,Calm,Calm,-,0.03,,Overcast,0,2007-03-20 21:54:00
6:54 PM,59.0,55.0,87,30.36,9.0,Calm,Calm,-,0.00,,Overcast,0,2007-03-20 22:54:00
7:54 PM,57.0,53.1,87,30.40,3.0,NNW,8.1,-,0.02,Rain,Rain,340,2007-03-20 23:54:00
8:54 PM,55.9,54.0,93,30.40,7.0,NNW,9.2,-,0.01,Rain,Light Rain,330,2007-03-21 00:54:00
9:54 PM,55.9,53.1,90,30.40,6.0,NNW,8.1,-,0.01,Rain,Light Rain,340,2007-03-21 01:54:00
10:54 PM,55.0,52.0,89,30.40,7.0,North,5.8,-,0.00,,Overcast,10,2007-03-21 02:54:00
11:54 PM,55.0,52.0,89,30.40,5.0,Calm,Calm,-,N/A,,Overcast,0,2007-03-21 03:54:00